[[{"header":{"parameterUnit":"m.s-1","parameterCategory":1,"la1":30.2991,"la2":30.254,"lo1":-89.0895,"lo2":-89.0444,"dy":0.0017,"dx":0.0017,"nx":28,"ny":28,"refTime":"2023-10-01T03:00:00:Z","depth":0,"parameterNumber":2,"parameterNumberName":"U-component_of_WINDS"},"data":[0,0,0,0,0,0,0,0,0,0,0,0,0,0,0,0,0,0,0,0,0,0,0,0,0,0,0,0,0,0,0,0,0,0,0,0,0,0,0,0,0,0,0,0,0,0,0,0,0,0,0,0,0,0,0,0,0,0,-5.0053,-5.0053,0,-5.0053,-5.0053,-5.0053,-4.9884,-4.9879,-4.9875,-4.9871,-4.9871,-4.9875,-4.9879,0,0,0,0,0,0,0,0,0,0,0,0,0,-4.9904,-4.9907,-5.0052,-5.0053,-5.0053,-5.0053,-5.0053,-5.0053,-4.9885,-4.9879,-4.9874,-4.9869,-4.9869,-4.9874,-4.9879,0,0,0,0,0,0,0,0,0,0,0,0,0,-4.9943,-4.9909,-5.0052,-4.9969,-4.9961,-5.0053,-5.0053,-5.0053,-4.9886,-4.9879,-4.9872,-4.9866,-4.9868,-4.9874,-4.988,-5.0052,0,0,-4.9899,-4.9902,0,0,0,0,0,0,0,0,-4.9941,-4.9949,-4.9981,-4.9975,-4.9966,-4.9962,-5.0,-5.0053,-4.9888,-4.9914,-4.9871,-4.9863,-4.9906,-4.9909,-4.9924,-5.0052,-5.0052,-4.99,-4.9903,-4.9906,-4.9908,0,0,0,0,0,0,0,-4.9938,-4.9948,-5.0053,-4.9982,-4.9973,-4.993,-4.9929,-5.001,-4.9948,-4.9912,-4.9899,-4.9902,-4.9901,-4.9918,-4.9923,-5.0052,-4.9899,-4.9905,-4.9909,-4.9911,-5.0319,-5.0326,0,0,0,0,0,0,-4.9947,-4.9946,-5.0053,-5.0053,-4.9937,-4.9939,-4.9936,-4.997,-4.9946,-4.9937,-4.9907,-4.9894,-4.9911,-4.9915,-4.9922,-5.012,-4.9906,-4.9912,-4.9915,-5.0312,-5.0321,-5.0329,0,0,0,0,0,0,-4.9945,-4.9959,-5.0053,-4.9996,-5.0005,-4.9948,-4.9987,-4.9973,-4.999,-4.9943,-4.9931,-4.9936,-4.9906,-4.9913,-5.002,-5.0117,-4.9915,-4.992,-5.0304,-5.0315,-5.0325,-5.0519,0,0,0,0,0,0,-4.9941,-4.9959,-5.0024,-4.9999,-5.0009,-5.0152,-4.9993,-4.9978,-5.0001,-4.9984,-4.9967,-4.9958,-4.9901,-5.0012,-5.0027,-5.0122,-4.9925,-5.0295,-5.0309,-5.0321,-5.0503,-5.0535,-5.0561,0,0,0,0,0,-4.9937,-5.0079,-5.0028,-5.0042,-5.0089,-5.0158,-5.0163,-5.0095,-5.001,-5.0074,-5.0044,-4.9959,-5.0105,-5.0025,-5.004,-5.0139,-5.0288,-5.0305,-5.032,-5.049,-5.0528,-5.0561,0,0,0,0,0,0,-5.0116,-5.0074,-5.0017,-5.0155,-5.0162,-5.0129,-5.0209,-5.0138,-5.0168,-5.0151,-5.0064,-5.0062,-5.0183,-5.0171,-5.0083,-5.0303,-5.0181,-5.0201,-5.0305,-5.0341,-5.037,-5.0369,-4.993,0,0,0,0,0,-5.0172,-5.0232,-5.0192,-5.0318,-5.0324,-5.0267,-5.0294,-5.0241,-5.0243,-5.0245,-5.0223,-5.0229,-5.0275,-5.0308,-5.0349,-5.0502,-5.0494,-5.0577,-5.0606,-5.063,-5.0648,-5.0726,-5.0761,-5.0381,-5.0381,-5.0381,0,0,-5.0287,-5.0272,-5.0315,-5.0353,-5.0352,-5.0415,-5.027,-5.0343,-5.0389,-5.0256,-5.0355,-5.034,-5.034,-5.0471,-5.0527,-5.0465,-5.0751,-5.0651,-5.067,-5.0674,-5.0746,-5.0782,-5.0814,-5.0392,-5.039,-5.0388,0,0,-5.053,-5.0525,-5.0628,-5.063,-5.0629,-5.059,-5.0616,-5.0594,-5.0578,-5.0677,-5.0578,-5.0632,-5.0715,-5.0719,-5.0732,-5.0976,-5.0898,-5.0992,-5.1143,-5.122,-5.125,-5.1276,-5.1361,-5.1393,-5.101,-5.101,-5.1011,0,-5.0673,-5.0765,-5.069,-5.077,-5.0789,-5.0672,-5.0775,-5.0781,-5.0794,-5.081,-5.074,-5.0841,-5.0834,-5.0963,-5.1022,-5.1038,-5.1062,-5.0992,-5.1252,-5.1277,-5.13,-5.1381,-5.1413,-5.1022,-5.102,-5.1019,-5.1018,0,-5.094,-5.1005,-5.1089,-5.1104,-5.1133,-5.1224,-5.1163,-5.1201,-5.1146,-5.1114,-5.1215,-5.1202,-5.1237,-5.1265,-5.1212,-5.1386,-5.1347,-5.1267,-5.1142,-5.1349,-5.1423,-5.1453,-5.1038,-5.1034,-5.103,-5.1028,0,0,-5.1294,-5.1267,-5.1299,-5.1303,-5.1295,-5.1343,-5.1429,-5.1464,-5.1497,-5.1511,-5.1579,-5.1653,-5.1577,-5.1593,-5.1539,-5.1608,-5.1799,-5.1518,-5.1516,-5.1569,-5.1988,-5.2048,-5.2085,-5.1748,-5.1754,-5.1758,-5.1988,0,-5.1527,-5.1671,-5.1607,-5.1758,-5.1816,-5.1706,-5.1781,-5.1783,-5.1756,-5.1801,-5.1771,-5.1824,-5.1722,-5.173,-5.1793,-5.1763,-5.1882,-5.1746,-5.181,-5.1813,-5.1811,-5.2123,-5.2186,-5.2403,-5.2016,-5.2021,-5.2025,0,-5.1817,-5.1842,-5.1999,-5.1979,-5.2001,-5.2069,-5.2095,-5.214,-5.214,-5.2115,-5.2133,-5.2064,-5.2145,-5.2025,-5.2135,-5.2044,-5.2067,-5.2057,-5.2063,-5.2065,-5.193,-5.2131,-5.2471,-5.2503,-5.207,-5.2066,-5.2063,0,-5.2057,-5.213,-5.2233,-5.2241,-5.222,-5.227,-5.2264,-5.2258,-5.2282,-5.2305,-5.232,-5.2353,-5.237,-5.2397,-5.2338,-5.2256,-5.2457,-5.2331,-5.2438,-5.244,-5.2483,-5.2481,-5.2829,-5.2503,-5.2502,-5.2501,-5.2501,0,-5.2322,-5.2422,-5.234,-5.2403,-5.2511,-5.2436,-5.2545,-5.2527,-5.2523,-5.258,-5.2488,-5.2543,-5.2463,-5.2511,-5.2466,-5.2564,-5.2573,-5.2555,-5.2541,-5.2562,-5.2564,-5.2574,-5.2556,-5.251,-5.2508,-5.2506,-5.2505,0,-5.2607,-5.2556,-5.2661,-5.2633,-5.2628,-5.2709,-5.2684,-5.2741,-5.2708,-5.2781,-5.2794,-5.2742,-5.2794,-5.2738,-5.2786,-5.2755,-5.2887,-5.2852,-5.2887,-5.2876,-5.2984,-5.2974,-5.3349,-5.3394,-5.3041,-5.3045,-5.3048,0,-5.2778,-5.2852,-5.2832,-5.2864,-5.2863,-5.2915,-5.294,-5.2869,-5.2898,-5.2904,-5.296,-5.3004,-5.3035,-5.3122,-5.3088,-5.3124,-5.3088,-5.3217,-5.3092,-5.311,-5.3087,-5.3083,-5.3089,-5.3242,-5.3246,-5.3249,-5.3252,0,-5.3087,-5.3058,-5.3097,-5.3128,-5.316,-5.318,-5.3194,-5.3225,-5.3151,-5.3189,-5.324,-5.3264,-5.3313,-5.3356,-5.3383,-5.3375,-5.3302,-5.3292,-5.3318,-5.3339,-5.3355,-5.3345,-5.2953,-5.3283,-5.328,-5.3278,-5.3276,-5.3275,-5.3319,-5.3379,-5.3374,-5.342,-5.3423,-5.3437,-5.3489,-5.3462,-5.3504,-5.3537,-5.3493,-5.3556,-5.3554,-5.3581,-5.3583,-5.3631,-5.3575,-5.3614,-5.3623,-5.3633,-5.3649,-5.3349,-5.3635,-5.3634,-5.3634,-5.3633,-5.3632,0,-5.3621,-5.3612,-5.3656,-5.3677,-5.3713,-5.3642,-5.3653,-5.3688,-5.3744,-5.3749,-5.3781,-5.3839,-5.3882,-5.3852,-5.3887,-5.3931,-5.3898,-5.3943,-5.3938,-5.3937,-5.3697,-5.367,-5.3969,-5.3969,-5.3969,-5.3969,-5.3968,-5.3968,-5.3782,-5.3879,-5.385,-5.3948,-5.3938,-5.3999,-5.4011,-5.4024,-5.4027,-5.4096,-5.4131,-5.4111,-5.4101,-5.4135,-5.417,-5.416,-5.4177,-5.4233,-5.4211,-5.3987,-5.3954,-5.3922,-5.3896,-5.4238,-5.4238,-5.4447,-5.4449,-5.445]},{"header":{"parameterUnit":"m.s-1","parameterCategory":1,"la1":30.2991,"la2":30.254,"lo1":-89.0895,"lo2":-89.0444,"dy":0.0017,"dx":0.0017,"nx":28,"ny":28,"refTime":"2023-10-01T03:00:00:Z","depth":0,"parameterNumber":3,"parameterNumberName":"V-component_of_WINDS"},"data":[0,0,0,0,0,0,0,0,0,0,0,0,0,0,0,0,0,0,0,0,0,0,0,0,0,0,0,0,0,0,0,0,0,0,0,0,0,0,0,0,0,0,0,0,0,0,0,0,0,0,0,0,0,0,0,0,0,0,1.3214,1.3213,0,1.3203,1.3203,1.3203,1.3178,1.3177,1.3177,1.3176,1.3164,1.3164,1.3164,0,0,0,0,0,0,0,0,0,0,0,0,0,1.3212,1.3212,1.3214,1.3213,1.3213,1.3203,1.3203,1.3203,1.3178,1.3177,1.3177,1.3176,1.3164,1.3164,1.3164,0,0,0,0,0,0,0,0,0,0,0,0,0,1.3208,1.3212,1.3214,1.32,1.3198,1.3203,1.3203,1.3203,1.3178,1.3177,1.3177,1.3176,1.3163,1.3164,1.3164,1.318,0,0,1.3164,1.3165,0,0,0,0,0,0,0,0,1.3208,1.3208,1.3202,1.3201,1.3199,1.3191,1.3197,1.3195,1.3178,1.3186,1.3176,1.3175,1.3173,1.3173,1.3172,1.318,1.3179,1.3164,1.3165,1.3165,1.3165,0,0,0,0,0,0,0,1.3209,1.3208,1.3209,1.3202,1.32,1.3194,1.3193,1.3197,1.3184,1.3185,1.3183,1.3182,1.3172,1.3172,1.3172,1.3179,1.3164,1.3165,1.3165,1.3165,1.32,1.3201,0,0,0,0,0,0,1.3211,1.3209,1.321,1.3209,1.3202,1.3195,1.3193,1.3194,1.3184,1.3181,1.3183,1.3181,1.3172,1.3171,1.3171,1.3189,1.3165,1.3165,1.3165,1.3199,1.32,1.3201,0,0,0,0,0,0,1.3211,1.3211,1.321,1.3208,1.3208,1.3195,1.3197,1.3195,1.3194,1.3182,1.318,1.3185,1.3171,1.3171,1.3178,1.3189,1.3165,1.3165,1.3198,1.32,1.3201,1.3226,0,0,0,0,0,0,1.3211,1.3212,1.3218,1.3209,1.3208,1.3218,1.3198,1.3195,1.3195,1.3192,1.3184,1.3181,1.3171,1.3178,1.3179,1.3188,1.3165,1.3197,1.3199,1.32,1.3224,1.3228,1.3232,0,0,0,0,0,1.3211,1.3225,1.3218,1.3218,1.3215,1.3218,1.3218,1.3206,1.3196,1.3202,1.3194,1.3182,1.3188,1.3179,1.3179,1.3189,1.3197,1.3198,1.32,1.3223,1.3228,1.3231,0,0,0,0,0,0,1.3234,1.3223,1.3216,1.3227,1.3224,1.3214,1.3221,1.3211,1.321,1.3208,1.3193,1.3191,1.3201,1.3196,1.3187,1.3205,1.319,1.3192,1.3207,1.3212,1.3215,1.3215,1.3165,0,0,0,0,0,1.324,1.3244,1.3234,1.3245,1.3244,1.3233,1.3234,1.3225,1.3221,1.322,1.3213,1.3209,1.321,1.3211,1.3211,1.3225,1.3222,1.3232,1.3235,1.3238,1.3239,1.3246,1.325,1.3207,1.3207,1.3207,0,0,1.3253,1.3248,1.3251,1.325,1.3246,1.325,1.3232,1.3237,1.3239,1.322,1.3227,1.3222,1.3217,1.3227,1.3232,1.3224,1.3251,1.3241,1.3243,1.3243,1.3249,1.3253,1.3256,1.3208,1.3208,1.3208,0,0,1.3278,1.3275,1.3284,1.3281,1.3277,1.327,1.3272,1.3265,1.3261,1.3268,1.3254,1.3257,1.3259,1.3256,1.3255,1.3282,1.327,1.3282,1.33,1.3307,1.331,1.3313,1.3322,1.3325,1.3284,1.3284,1.3284,0,1.3294,1.33,1.3289,1.3295,1.3295,1.328,1.3288,1.3286,1.3282,1.3282,1.3274,1.3277,1.3273,1.3282,1.3289,1.3289,1.3291,1.3282,1.3311,1.3313,1.3316,1.3324,1.3328,1.3286,1.3286,1.3285,1.3285,0,1.332,1.3324,1.3332,1.3329,1.333,1.3337,1.3328,1.333,1.3322,1.3316,1.3324,1.3318,1.3317,1.332,1.3311,1.3328,1.3324,1.3314,1.3298,1.3322,1.3329,1.3332,1.3288,1.3287,1.3287,1.3286,0,0,1.3356,1.335,1.3352,1.3351,1.3346,1.3349,1.3357,1.3357,1.3359,1.3357,1.3362,1.3366,1.3357,1.3356,1.3347,1.3354,1.3375,1.3342,1.3342,1.3348,1.3392,1.3399,1.3403,1.3368,1.3368,1.3369,1.3393,0,1.3379,1.3391,1.3382,1.3395,1.3399,1.3386,1.3392,1.3389,1.3385,1.3387,1.3382,1.3384,1.3372,1.3371,1.3377,1.3371,1.3383,1.3369,1.3371,1.3372,1.3371,1.3407,1.3413,1.3436,1.3395,1.3396,1.3396,0,1.3407,1.3407,1.3421,1.3416,1.3417,1.3423,1.3423,1.3426,1.3424,1.342,1.342,1.341,1.3417,1.3403,1.3412,1.3403,1.3403,1.3401,1.3401,1.3399,1.3384,1.3405,1.3443,1.3446,1.3401,1.3401,1.34,0,1.3431,1.3435,1.3444,1.3444,1.3439,1.3443,1.3441,1.3438,1.3439,1.3439,1.344,1.3441,1.3441,1.3442,1.3433,1.3424,1.3443,1.3428,1.3439,1.3439,1.3441,1.3441,1.3479,1.3445,1.3445,1.3445,1.3445,0,1.3456,1.3464,1.3455,1.346,1.3469,1.346,1.347,1.3466,1.3464,1.3468,1.3457,1.3461,1.345,1.3453,1.3447,1.3455,1.3455,1.3452,1.3449,1.3452,1.3452,1.345,1.3448,1.3446,1.3445,1.3445,1.3445,0,1.3483,1.3477,1.3486,1.3481,1.348,1.3487,1.3483,1.3488,1.3484,1.3489,1.349,1.3482,1.3486,1.3478,1.3479,1.3475,1.3486,1.3482,1.3487,1.3485,1.3496,1.3494,1.3532,1.3537,1.3501,1.3502,1.3502,0,1.3499,1.3505,1.3502,1.3504,1.3503,1.3508,1.3509,1.3501,1.3503,1.3502,1.3506,1.3509,1.351,1.3516,1.351,1.3512,1.3507,1.3521,1.3507,1.3509,1.3506,1.3505,1.3505,1.3523,1.3523,1.3523,1.3524,0,1.3527,1.3524,1.3527,1.3529,1.3532,1.3533,1.3533,1.3536,1.3527,1.353,1.3534,1.3535,1.3538,1.354,1.3541,1.3538,1.3529,1.3529,1.3531,1.3532,1.3534,1.3532,1.3493,1.3527,1.3527,1.3526,1.3526,1.3526,1.3548,1.3553,1.3552,1.3556,1.3556,1.3557,1.3561,1.3558,1.3561,1.3563,1.3558,1.3563,1.3561,1.3562,1.3561,1.3564,1.3558,1.3561,1.3562,1.3562,1.3564,1.3535,1.3564,1.3564,1.3564,1.3564,1.3564,0,1.3574,1.3574,1.3577,1.3579,1.3582,1.3575,1.3576,1.3579,1.3583,1.3583,1.3585,1.359,1.3593,1.3588,1.3591,1.3594,1.359,1.3595,1.3594,1.3593,1.357,1.3567,1.3598,1.3598,1.3598,1.3598,1.3598,1.3598,1.3589,1.3597,1.3595,1.3603,1.3602,1.3607,1.3608,1.3609,1.3609,1.3615,1.3618,1.3615,1.3613,1.3616,1.3618,1.3617,1.3617,1.3623,1.3621,1.3598,1.3595,1.3591,1.3589,1.3624,1.3624,1.3644,1.3644,1.3644]}]]